UAE20 EGCC-OMDB

Flight info

Callsign UAE20
Flight time N/A
Altitude 23000
Route SANBA N859 HON/N0469F370 UL612 OGULO DCT OKASI DCT OKEKO DCT MOU DCT MADIV DCT MOKIP DCT TUFTA DCT GEVEA DCT ORSUD DCT BIBAN DCT ORTAP DCT ARLOS/N0461F390 UN4 SALUN N705 BOPIX N710 TAKRI M720 FYM W613 ALPID DCT SISIK W976 TAKSU L550 KARIK B411 DEESA Y415 LOTOK P559 NALPO/N0445F350 P559 VUTEB
Aircraft A388/J-SADE2E3FGHIJ3J4J5M1RWXY/LB1D1

Departure

Time N/A
Airport Manchester Airport (EGCC)

Arrival

Time 2026-04-23 11:08
Airport Dubai International Airport (OMDB)
Time Latitude Longitude Altitude Speed Heading
2026-04-23 07:29 34.33764 23.67456 38974 ft 531 kts 121°
2026-04-23 07:30 34.32029 23.71484 38975 ft 531 kts 121°
2026-04-23 07:30 34.28611 23.79402 38975 ft 532 kts 121°
2026-04-23 07:31 34.25182 23.87331 38974 ft 532 kts 121°
2026-04-23 07:31 34.21749 23.95248 38981 ft 532 kts 121°
2026-04-23 07:32 34.18309 24.03164 38977 ft 532 kts 121°
2026-04-23 07:32 34.14887 24.11021 38979 ft 532 kts 121°
2026-04-23 07:33 34.11435 24.18928 38972 ft 532 kts 121°
2026-04-23 07:33 34.07978 24.26829 38974 ft 533 kts 121°
2026-04-23 07:34 34.04514 24.34726 38975 ft 533 kts 121°
2026-04-23 07:34 34.00803 24.42420 38972 ft 528 kts 129°
2026-04-23 07:35 33.96106 24.49143 38972 ft 521 kts 141°
2026-04-23 07:35 33.90745 24.54947 38984 ft 518 kts 143°
2026-04-23 07:36 33.85363 24.60731 38975 ft 519 kts 143°
2026-04-23 07:36 33.79983 24.66513 38971 ft 519 kts 143°
2026-04-23 07:37 33.74593 24.72286 38987 ft 519 kts 143°
2026-04-23 07:37 33.69200 24.78050 38987 ft 519 kts 143°
2026-04-23 07:38 33.63805 24.83806 38981 ft 519 kts 143°
2026-04-23 07:38 33.58403 24.89560 38979 ft 519 kts 143°
2026-04-23 07:39 33.53006 24.95298 38977 ft 519 kts 143°
2026-04-23 07:39 33.47604 25.01032 38980 ft 518 kts 143°
2026-04-23 07:40 33.42242 25.06714 38982 ft 518 kts 143°
2026-04-23 07:40 33.36803 25.12467 38983 ft 518 kts 143°
2026-04-23 07:41 33.31408 25.18163 38982 ft 518 kts 143°
2026-04-23 07:41 33.26041 25.23821 38985 ft 517 kts 143°
2026-04-23 07:42 33.20610 25.29536 38986 ft 517 kts 143°
2026-04-23 07:42 33.15206 25.35212 38981 ft 517 kts 143°
2026-04-23 07:43 33.09847 25.40832 38986 ft 517 kts 143°
2026-04-23 07:43 33.04444 25.46489 38988 ft 516 kts 144°
2026-04-23 07:44 32.99047 25.52129 38991 ft 516 kts 144°
2026-04-23 07:44 32.93652 25.57759 38990 ft 515 kts 144°
2026-04-23 07:45 32.88261 25.63374 38992 ft 515 kts 144°
2026-04-23 07:45 32.82876 25.68974 38995 ft 514 kts 144°
2026-04-23 07:46 32.77496 25.74559 38993 ft 514 kts 144°
2026-04-23 07:46 32.72109 25.80143 38994 ft 513 kts 144°
2026-04-23 07:47 32.66726 25.85712 39005 ft 513 kts 144°
2026-04-23 07:47 32.61353 25.91262 39007 ft 512 kts 144°
2026-04-23 07:48 32.55978 25.96805 39002 ft 512 kts 144°
2026-04-23 07:48 32.50601 26.02340 38990 ft 512 kts 144°
2026-04-23 07:49 32.45265 26.07825 38994 ft 511 kts 144°
2026-04-23 07:49 32.39891 26.13340 39001 ft 511 kts 144°
2026-04-23 07:50 32.34518 26.18845 38997 ft 511 kts 144°
2026-04-23 07:50 32.29144 26.24342 38998 ft 511 kts 144°
2026-04-23 07:51 32.23761 26.29838 38997 ft 511 kts 144°
2026-04-23 07:51 32.18385 26.35319 39002 ft 511 kts 144°
2026-04-23 07:52 32.13001 26.40799 39003 ft 511 kts 144°
2026-04-23 07:52 32.07614 26.46274 39004 ft 511 kts 144°
2026-04-23 07:53 32.02225 26.51741 39003 ft 511 kts 144°
2026-04-23 07:53 31.96836 26.57200 39004 ft 511 kts 144°
2026-04-23 07:54 31.91444 26.62653 39004 ft 511 kts 144°
2026-04-23 07:54 31.86060 26.68089 39003 ft 510 kts 145°
2026-04-23 07:55 31.80666 26.73527 39001 ft 510 kts 145°
2026-04-23 07:55 31.75282 26.78945 38997 ft 510 kts 145°
2026-04-23 07:56 31.69890 26.84364 38994 ft 510 kts 145°
2026-04-23 07:56 31.64537 26.89735 38993 ft 510 kts 145°
2026-04-23 07:57 31.59146 26.95134 38996 ft 510 kts 145°
2026-04-23 07:57 31.53747 27.00534 38993 ft 510 kts 145°
2026-04-23 07:58 31.48354 27.05920 38991 ft 510 kts 145°
2026-04-23 07:58 31.42946 27.11311 38990 ft 510 kts 145°
2026-04-23 07:59 31.37549 27.16686 38990 ft 510 kts 145°
2026-04-23 07:59 31.31951 27.21706 38989 ft 503 kts 153°
2026-04-23 08:00 31.25864 27.25590 38990 ft 495 kts 162°
2026-04-23 08:00 31.19603 27.28945 38988 ft 495 kts 161°
2026-04-23 08:01 31.13351 27.32337 38990 ft 496 kts 161°
2026-04-23 08:01 31.07096 27.35726 38989 ft 496 kts 161°
2026-04-23 08:02 31.00875 27.39090 38993 ft 496 kts 161°
2026-04-23 08:02 30.94656 27.42615 39005 ft 501 kts 156°
2026-04-23 08:03 30.88866 27.47252 39005 ft 509 kts 146°
2026-04-23 08:03 30.84036 27.51785 38995 ft 510 kts 147°
2026-04-23 08:04 30.83500 27.52284 38993 ft 510 kts 147°
2026-04-23 08:04 30.77942 27.57440 38999 ft 510 kts 147°
2026-04-23 08:05 30.72398 27.62566 39001 ft 510 kts 147°
2026-04-23 08:05 30.67775 27.66836 38999 ft 510 kts 147°
2026-04-23 08:06 30.62216 27.71963 38997 ft 510 kts 147°
2026-04-23 08:06 30.56659 27.77081 38996 ft 510 kts 147°
2026-04-23 08:07 30.51099 27.82195 38995 ft 510 kts 147°
2026-04-23 08:07 30.45538 27.87301 38997 ft 510 kts 147°
2026-04-23 08:08 30.39971 27.92405 38990 ft 510 kts 147°
2026-04-23 08:08 30.34409 27.97497 38988 ft 510 kts 147°
2026-04-23 08:09 30.28838 28.02590 38983 ft 510 kts 147°
2026-04-23 08:09 30.23271 28.07672 38986 ft 510 kts 147°
2026-04-23 08:10 30.17695 28.12754 38983 ft 510 kts 147°
2026-04-23 08:10 30.09336 28.20358 38981 ft 510 kts 147°
2026-04-23 08:11 30.03753 28.25427 38978 ft 510 kts 147°
2026-04-23 08:11 29.98172 28.30489 38985 ft 510 kts 147°
2026-04-23 08:12 29.92586 28.35546 38985 ft 510 kts 147°
2026-04-23 08:12 29.87127 28.40800 38987 ft 515 kts 140°
2026-04-23 08:13 29.82417 28.47103 38997 ft 522 kts 131°
2026-04-23 08:13 29.78014 28.53739 38999 ft 522 kts 132°
2026-04-23 08:14 29.73583 28.60352 38996 ft 522 kts 132°
2026-04-23 08:14 29.69171 28.66920 38989 ft 522 kts 132°
2026-04-23 08:15 29.64732 28.73520 38988 ft 522 kts 132°
2026-04-23 08:15 29.60287 28.80122 38984 ft 522 kts 132°
2026-04-23 08:16 29.55837 28.86724 38980 ft 522 kts 132°
2026-04-23 08:16 29.51387 28.93313 38982 ft 522 kts 132°
2026-04-23 08:17 29.46932 28.99900 38978 ft 522 kts 133°
2026-04-23 08:17 29.43169 29.07061 38976 ft 532 kts 114°
2026-04-23 08:18 29.42101 29.11137 38979 ft 537 kts 103°
2026-04-23 08:18 29.41640 29.15404 38977 ft 540 kts 92°
2026-04-23 08:18 29.41576 29.24019 38977 ft 541 kts 91°
2026-04-23 08:19 29.41475 29.32646 38978 ft 541 kts 92°
2026-04-23 08:19 29.41364 29.41278 38982 ft 542 kts 92°
2026-04-23 08:20 29.41250 29.49935 38983 ft 543 kts 92°
2026-04-23 08:20 29.41131 29.58592 38982 ft 543 kts 92°
2026-04-23 08:21 29.41006 29.67251 38980 ft 543 kts 92°
2026-04-23 08:21 29.40876 29.75921 38976 ft 543 kts 92°
2026-04-23 08:22 29.40740 29.84584 38975 ft 543 kts 92°
2026-04-23 08:22 29.40598 29.93254 38970 ft 544 kts 92°
2026-04-23 08:23 29.40451 30.01918 38974 ft 543 kts 92°
2026-04-23 08:23 29.40298 30.10577 38976 ft 543 kts 92°
2026-04-23 08:24 29.40140 30.19241 38969 ft 543 kts 92°
2026-04-23 08:24 29.39976 30.27909 38971 ft 543 kts 92°
2026-04-23 08:25 29.39806 30.36570 38974 ft 544 kts 93°
2026-04-23 08:25 29.39712 30.45247 38971 ft 544 kts 91°
2026-04-23 08:26 29.39787 30.53924 38973 ft 545 kts 91°
2026-04-23 08:26 29.39837 30.62611 38976 ft 545 kts 91°
2026-04-23 08:27 29.39862 30.71306 38977 ft 545 kts 91°
2026-04-23 08:27 29.39878 30.79999 38973 ft 546 kts 91°
2026-04-23 08:28 29.39889 30.88712 38973 ft 546 kts 91°
2026-04-23 08:28 29.39894 30.97359 38972 ft 546 kts 91°
2026-04-23 08:29 29.39893 31.06125 38977 ft 546 kts 91°
2026-04-23 08:29 29.39888 31.14785 38975 ft 547 kts 91°
2026-04-23 08:30 29.39876 31.23505 38983 ft 547 kts 91°
2026-04-23 08:30 29.40171 31.32224 38983 ft 549 kts 83°
2026-04-23 08:31 29.41460 31.40855 38985 ft 549 kts 81°
2026-04-23 08:31 29.42756 31.49487 38996 ft 550 kts 81°
2026-04-23 08:32 29.44042 31.58129 38995 ft 550 kts 81°
2026-04-23 08:32 29.45327 31.66777 38995 ft 550 kts 81°
2026-04-23 08:33 29.46607 31.75430 38997 ft 550 kts 81°
2026-04-23 08:33 29.47883 31.84088 38999 ft 550 kts 81°
2026-04-23 08:34 29.49152 31.92747 38993 ft 550 kts 81°
2026-04-23 08:34 29.50415 32.01405 38988 ft 550 kts 81°
2026-04-23 08:35 29.51672 32.10064 38996 ft 550 kts 81°
2026-04-23 08:35 29.52927 32.18738 38986 ft 550 kts 81°
2026-04-23 08:36 29.54173 32.27407 38990 ft 550 kts 81°
2026-04-23 08:36 29.55415 32.36080 38984 ft 550 kts 81°
2026-04-23 08:37 29.56649 32.44739 38968 ft 551 kts 81°
2026-04-23 08:37 29.57883 32.53443 38966 ft 551 kts 82°
2026-04-23 08:38 29.59109 32.62130 38967 ft 551 kts 82°
2026-04-23 08:38 29.60030 32.70869 38970 ft 550 kts 90°
2026-04-23 08:39 29.60103 32.79583 38965 ft 550 kts 91°
2026-04-23 08:39 29.60197 32.88391 38966 ft 551 kts 91°
2026-04-23 08:40 29.60282 32.97212 38976 ft 552 kts 91°
2026-04-23 08:40 29.60357 33.06035 38977 ft 553 kts 91°
2026-04-23 08:41 29.60425 33.14866 38977 ft 553 kts 91°
2026-04-23 08:41 29.60488 33.23693 38980 ft 553 kts 91°
2026-04-23 08:42 29.60545 33.32533 38981 ft 553 kts 92°
2026-04-23 08:42 29.60595 33.41361 38975 ft 553 kts 92°
2026-04-23 08:43 29.60640 33.50184 38977 ft 552 kts 92°
2026-04-23 08:43 29.60679 33.59019 38972 ft 553 kts 92°
2026-04-23 08:44 29.60712 33.67856 38974 ft 553 kts 92°
2026-04-23 08:44 29.60740 33.76701 38980 ft 554 kts 92°
2026-04-23 08:45 29.60758 33.85552 38988 ft 554 kts 92°
2026-04-23 08:45 29.60745 33.94398 38981 ft 555 kts 92°
2026-04-23 08:46 29.60726 34.03266 38977 ft 555 kts 92°
2026-04-23 08:46 29.60704 34.12141 38982 ft 556 kts 92°
2026-04-23 08:47 29.60677 34.21021 38984 ft 556 kts 92°
2026-04-23 08:47 29.60666 34.29916 38981 ft 557 kts 92°
2026-04-23 08:48 29.60688 34.38810 38977 ft 557 kts 92°
2026-04-23 08:48 29.60698 34.47719 38980 ft 558 kts 92°
2026-04-23 08:49 29.59728 34.56393 38975 ft 547 kts 112°
2026-04-23 08:49 29.58307 34.60402 38970 ft 538 kts 124°
2026-04-23 08:49 29.56327 34.63988 38962 ft 527 kts 135°
2026-04-23 08:50 29.53886 34.67063 38962 ft 515 kts 146°
2026-04-23 08:50 29.51151 34.69659 38962 ft 510 kts 149°
2026-04-23 08:50 29.46229 34.75699 38952 ft 533 kts 129°
2026-04-23 08:51 29.44462 34.79478 38960 ft 543 kts 118°
2026-04-23 08:51 29.43268 34.83613 38957 ft 552 kts 107°
2026-04-23 08:51 29.42189 34.92391 38949 ft 559 kts 96°
2026-04-23 08:52 29.42581 35.01345 38956 ft 566 kts 81°
2026-04-23 08:52 29.44119 35.08636 38968 ft 567 kts 75°
2026-04-23 08:53 29.46181 35.17392 38983 ft 568 kts 75°
2026-04-23 08:53 29.48219 35.26157 38993 ft 569 kts 75°
2026-04-23 08:54 29.50259 35.34941 38991 ft 570 kts 75°
2026-04-23 08:54 29.52297 35.43730 38995 ft 569 kts 75°
2026-04-23 08:55 29.54336 35.52507 38984 ft 569 kts 75°
2026-04-23 08:55 29.56426 35.61276 38979 ft 569 kts 75°
2026-04-23 08:56 29.58504 35.70027 38980 ft 568 kts 75°
2026-04-23 08:56 29.60567 35.78773 38981 ft 567 kts 75°
2026-04-23 08:57 29.62184 35.87644 38969 ft 566 kts 80°
2026-04-23 08:57 29.63636 35.96536 38966 ft 566 kts 80°
2026-04-23 08:58 29.65090 36.05429 38963 ft 566 kts 80°
2026-04-23 08:58 29.66532 36.14321 38953 ft 566 kts 80°
2026-04-23 08:59 29.67969 36.23224 38957 ft 566 kts 80°
2026-04-23 08:59 29.69400 36.32129 38939 ft 567 kts 80°
2026-04-23 09:00 29.70831 36.41043 38942 ft 567 kts 80°
2026-04-23 09:00 29.72274 36.49915 38948 ft 568 kts 80°
2026-04-23 09:01 29.73723 36.58863 38956 ft 569 kts 80°
2026-04-23 09:01 29.74510 36.67892 38963 ft 566 kts 94°
2026-04-23 09:02 29.73589 36.76817 38976 ft 559 kts 108°
2026-04-23 09:02 29.71831 36.85522 38961 ft 559 kts 107°
2026-04-23 09:03 29.70103 36.94251 38959 ft 559 kts 107°
2026-04-23 09:03 29.68363 37.02968 38979 ft 559 kts 107°
2026-04-23 09:04 29.66611 37.11689 38965 ft 560 kts 108°
2026-04-23 09:04 29.64851 37.20415 38976 ft 561 kts 108°
2026-04-23 09:05 29.63083 37.29148 38980 ft 561 kts 108°
2026-04-23 09:05 29.61306 37.37896 38975 ft 562 kts 108°
2026-04-23 09:06 29.59524 37.46638 38979 ft 562 kts 108°
2026-04-23 09:06 29.57735 37.55386 38969 ft 563 kts 108°
2026-04-23 09:07 29.55939 37.64136 38972 ft 563 kts 108°
2026-04-23 09:07 29.54135 37.72892 38975 ft 564 kts 108°
2026-04-23 09:08 29.52336 37.81592 38972 ft 564 kts 108°
2026-04-23 09:08 29.50517 37.90357 38970 ft 565 kts 108°
2026-04-23 09:09 29.48690 37.99136 38973 ft 565 kts 108°
2026-04-23 09:09 29.47050 38.07972 38970 ft 567 kts 105°
2026-04-23 09:10 29.44752 38.21310 38964 ft 568 kts 106°
2026-04-23 09:11 29.43174 38.30190 38971 ft 569 kts 106°
2026-04-23 09:11 29.41581 38.39075 38972 ft 569 kts 106°
2026-04-23 09:12 29.39980 38.47972 38971 ft 569 kts 106°
2026-04-23 09:12 29.38375 38.56863 38971 ft 569 kts 106°
2026-04-23 09:13 29.36763 38.65750 38970 ft 570 kts 106°
2026-04-23 09:13 29.35144 38.74646 38974 ft 570 kts 106°
2026-04-23 09:14 29.33519 38.83537 38974 ft 570 kts 106°
2026-04-23 09:14 29.31878 38.92445 38979 ft 570 kts 107°
2026-04-23 09:15 29.30038 39.01259 38980 ft 569 kts 108°
2026-04-23 09:15 29.28159 39.10059 38992 ft 569 kts 108°
2026-04-23 09:16 29.26295 39.18887 38999 ft 570 kts 108°
2026-04-23 09:16 29.24437 39.27706 39004 ft 570 kts 108°
2026-04-23 09:17 29.22573 39.36517 39001 ft 570 kts 108°
2026-04-23 09:17 29.20700 39.45341 39000 ft 570 kts 108°
2026-04-23 09:18 29.18822 39.54159 39000 ft 570 kts 108°
2026-04-23 09:18 29.16940 39.62966 39002 ft 571 kts 108°
2026-04-23 09:19 29.15050 39.71777 39005 ft 571 kts 108°
2026-04-23 09:19 29.13149 39.80612 39008 ft 571 kts 108°
2026-04-23 09:20 29.11244 39.89432 39010 ft 571 kts 108°
2026-04-23 09:20 29.09747 39.98386 39009 ft 575 kts 104°
2026-04-23 09:21 29.08337 40.07394 39011 ft 575 kts 104°
2026-04-23 09:21 29.06913 40.16383 39020 ft 575 kts 104°
2026-04-23 09:22 29.05488 40.25320 39024 ft 576 kts 104°
2026-04-23 09:22 29.04047 40.34317 39024 ft 576 kts 104°
2026-04-23 09:23 29.02598 40.43329 39022 ft 576 kts 104°
2026-04-23 09:23 29.01144 40.52329 39024 ft 576 kts 104°
2026-04-23 09:24 28.99684 40.61329 39027 ft 576 kts 104°
2026-04-23 09:24 28.98219 40.70320 39015 ft 576 kts 104°
2026-04-23 09:25 28.96746 40.79318 39019 ft 576 kts 104°
2026-04-23 09:25 28.95269 40.88305 39017 ft 576 kts 104°
2026-04-23 09:26 28.93786 40.97283 39024 ft 576 kts 104°
2026-04-23 09:26 28.92309 41.06193 39021 ft 576 kts 104°
2026-04-23 09:27 28.90804 41.15233 39026 ft 575 kts 105°
2026-04-23 09:27 28.89302 41.24208 39024 ft 575 kts 105°
2026-04-23 09:28 28.87796 41.33178 39026 ft 576 kts 105°
2026-04-23 09:28 28.86283 41.42147 39026 ft 576 kts 105°
2026-04-23 09:29 28.84763 41.51119 39025 ft 576 kts 105°
2026-04-23 09:29 28.83239 41.60080 39020 ft 576 kts 105°
2026-04-23 09:30 28.81708 41.69048 39026 ft 576 kts 105°
2026-04-23 09:30 28.80170 41.78009 39024 ft 576 kts 105°
2026-04-23 09:31 28.78626 41.86979 39027 ft 577 kts 105°
2026-04-23 09:31 28.77074 41.95955 39026 ft 577 kts 105°
2026-04-23 09:32 28.75518 42.04915 39022 ft 577 kts 105°
2026-04-23 09:32 28.73955 42.13880 39022 ft 577 kts 105°
2026-04-23 09:33 28.72386 42.22841 39021 ft 577 kts 105°
2026-04-23 09:33 28.70810 42.31811 39023 ft 577 kts 105°
2026-04-23 09:34 28.69229 42.40764 39019 ft 577 kts 105°
2026-04-23 09:34 28.67641 42.49726 39013 ft 577 kts 105°
2026-04-23 09:35 28.66059 42.58622 39008 ft 577 kts 105°
2026-04-23 09:35 28.64462 42.67566 39009 ft 577 kts 105°
2026-04-23 09:36 28.62718 42.76484 39010 ft 576 kts 107°
2026-04-23 09:36 28.60868 42.85355 39011 ft 576 kts 107°
2026-04-23 09:37 28.59040 42.94230 39011 ft 576 kts 107°
2026-04-23 09:37 28.57217 43.03115 39018 ft 576 kts 107°
2026-04-23 09:38 28.55391 43.11989 39015 ft 576 kts 107°
2026-04-23 09:38 28.53557 43.20868 39032 ft 576 kts 107°
2026-04-23 09:39 28.51718 43.29740 39014 ft 576 kts 107°
2026-04-23 09:39 28.50188 43.37100 39024 ft 576 kts 107°
2026-04-23 09:40 28.48337 43.45970 39021 ft 576 kts 107°
2026-04-23 09:40 28.46485 43.54818 39022 ft 576 kts 107°
2026-04-23 09:41 28.44325 43.65100 39013 ft 575 kts 107°
2026-04-23 09:41 28.42763 43.72510 39018 ft 575 kts 107°
2026-04-23 09:42 28.40895 43.81342 39016 ft 575 kts 107°
2026-04-23 09:42 28.39038 43.90115 39013 ft 575 kts 107°
2026-04-23 09:43 28.37204 43.98948 39013 ft 575 kts 107°
2026-04-23 09:43 28.35367 44.07778 39009 ft 574 kts 107°
2026-04-23 09:44 28.33520 44.16600 39021 ft 574 kts 107°
2026-04-23 09:44 28.31668 44.25412 39018 ft 574 kts 107°
2026-04-23 09:45 28.29812 44.34210 39017 ft 574 kts 107°
2026-04-23 09:45 28.27949 44.43011 39018 ft 573 kts 107°
2026-04-23 09:46 28.26082 44.51804 39019 ft 573 kts 107°
2026-04-23 09:46 28.24211 44.60585 39019 ft 573 kts 107°
2026-04-23 09:47 28.22334 44.69363 39021 ft 573 kts 108°
2026-04-23 09:47 28.20451 44.78144 39022 ft 572 kts 108°
2026-04-23 09:48 28.18565 44.86906 39028 ft 572 kts 108°
2026-04-23 09:48 28.16675 44.95657 39028 ft 572 kts 108°
2026-04-23 09:49 28.14579 45.04274 39027 ft 567 kts 115°
2026-04-23 09:49 28.11304 45.12303 39021 ft 557 kts 127°
2026-04-23 09:50 28.07261 45.19817 39024 ft 555 kts 128°
2026-04-23 09:50 28.03285 45.27251 39027 ft 555 kts 128°
2026-04-23 09:51 27.99277 45.34729 39029 ft 556 kts 128°
2026-04-23 09:51 27.95262 45.42198 39034 ft 556 kts 128°
2026-04-23 09:52 27.91237 45.49678 39034 ft 557 kts 127°
2026-04-23 09:52 27.87899 45.57672 39041 ft 569 kts 114°
2026-04-23 09:53 27.85833 45.66355 39041 ft 575 kts 107°
2026-04-23 09:53 27.84046 45.75155 39040 ft 575 kts 107°
2026-04-23 09:54 27.82234 45.83936 39048 ft 575 kts 107°
2026-04-23 09:54 27.80411 45.92740 39046 ft 575 kts 107°
2026-04-23 09:55 27.78587 46.01528 39047 ft 575 kts 107°
2026-04-23 09:55 27.76756 46.10316 39045 ft 575 kts 107°
2026-04-23 09:56 27.74923 46.19090 39044 ft 574 kts 107°
2026-04-23 09:56 27.73085 46.27864 39039 ft 574 kts 107°
2026-04-23 09:57 27.71258 46.36623 39042 ft 574 kts 107°
2026-04-23 09:57 27.69425 46.45390 39038 ft 573 kts 107°
2026-04-23 09:58 27.67588 46.54135 39040 ft 573 kts 107°
2026-04-23 09:58 27.65743 46.62883 39035 ft 573 kts 107°
2026-04-23 09:59 27.63894 46.71626 39034 ft 573 kts 107°
2026-04-23 09:59 27.62041 46.80355 39028 ft 573 kts 107°
2026-04-23 10:00 27.60182 46.89088 39027 ft 573 kts 107°
2026-04-23 10:00 27.58319 46.97810 39028 ft 573 kts 107°
2026-04-23 10:01 27.56449 47.06535 39027 ft 573 kts 107°
2026-04-23 10:01 27.54572 47.15261 39024 ft 573 kts 107°
2026-04-23 10:02 27.52703 47.23926 39020 ft 573 kts 107°
2026-04-23 10:02 27.50815 47.32651 39020 ft 573 kts 107°
2026-04-23 10:03 27.48923 47.41366 39022 ft 573 kts 107°
2026-04-23 10:03 27.47026 47.50078 39011 ft 573 kts 107°
2026-04-23 10:04 27.45124 47.58782 39024 ft 572 kts 107°
2026-04-23 10:04 27.42894 47.67342 39022 ft 569 kts 112°
2026-04-23 10:05 27.40488 47.75824 39020 ft 569 kts 112°
2026-04-23 10:05 27.38084 47.84306 39026 ft 568 kts 112°
2026-04-23 10:06 27.35674 47.92773 39029 ft 568 kts 112°
2026-04-23 10:06 27.33266 48.01203 39028 ft 567 kts 112°
2026-04-23 10:07 27.30845 48.09660 39024 ft 567 kts 111°
2026-04-23 10:07 27.28577 48.18155 39014 ft 568 kts 110°
2026-04-23 10:08 27.26357 48.26668 39010 ft 567 kts 110°
2026-04-23 10:08 27.24109 48.35170 39005 ft 567 kts 110°
2026-04-23 10:09 27.20717 48.47894 39000 ft 567 kts 110°
2026-04-23 10:09 27.18465 48.56314 38996 ft 566 kts 110°
2026-04-23 10:10 27.16178 48.64839 38993 ft 566 kts 110°
2026-04-23 10:10 27.13920 48.73239 38992 ft 566 kts 110°
2026-04-23 10:11 27.11638 48.81704 38992 ft 566 kts 110°
2026-04-23 10:11 27.09860 48.90331 38984 ft 570 kts 99°
2026-04-23 10:12 27.09347 48.99214 38979 ft 571 kts 94°
2026-04-23 10:12 27.08947 49.08117 38973 ft 571 kts 94°
2026-04-23 10:13 27.08531 49.17013 38974 ft 571 kts 94°
2026-04-23 10:13 27.08112 49.25920 38971 ft 572 kts 94°
2026-04-23 10:14 27.07680 49.34819 38969 ft 572 kts 94°
2026-04-23 10:14 27.07238 49.43730 38970 ft 571 kts 94°
2026-04-23 10:15 27.06807 49.52625 38971 ft 571 kts 94°
2026-04-23 10:15 27.06370 49.61514 38974 ft 571 kts 94°
2026-04-23 10:16 27.05926 49.70398 38982 ft 570 kts 94°
2026-04-23 10:16 27.05476 49.79278 38988 ft 570 kts 94°
2026-04-23 10:17 27.05022 49.88148 38985 ft 570 kts 94°
2026-04-23 10:17 27.04574 49.97025 38984 ft 569 kts 92°
2026-04-23 10:18 27.04639 50.05899 38982 ft 569 kts 89°
2026-04-23 10:18 27.04722 50.14764 38978 ft 569 kts 89°
2026-04-23 10:19 27.04803 50.23632 38984 ft 568 kts 89°
2026-04-23 10:19 27.04762 50.32484 38979 ft 567 kts 95°
2026-04-23 10:20 27.03330 50.41075 38973 ft 563 kts 110°
2026-04-23 10:20 27.00462 50.49192 38965 ft 559 kts 117°
2026-04-23 10:21 26.97424 50.57203 38962 ft 558 kts 116°
2026-04-23 10:21 26.94387 50.65211 38959 ft 558 kts 116°
2026-04-23 10:22 26.91338 50.73216 38954 ft 558 kts 116°
2026-04-23 10:22 26.88290 50.81198 38952 ft 557 kts 116°
2026-04-23 10:23 26.85239 50.89170 38948 ft 556 kts 116°
2026-04-23 10:23 26.82190 50.97125 38943 ft 556 kts 116°
2026-04-23 10:24 26.79161 51.05078 38933 ft 555 kts 116°
2026-04-23 10:24 26.76329 51.13121 38925 ft 556 kts 112°
2026-04-23 10:25 26.73732 51.21274 38909 ft 556 kts 112°
2026-04-23 10:25 26.71116 51.29420 38902 ft 556 kts 112°
2026-04-23 10:26 26.68500 51.37547 38934 ft 554 kts 112°
2026-04-23 10:26 26.65885 51.45654 38919 ft 554 kts 112°
2026-04-23 10:27 26.63281 51.53757 38915 ft 553 kts 112°
2026-04-23 10:27 26.61120 51.60474 38909 ft 553 kts 112°
2026-04-23 10:28 26.58516 51.68551 38904 ft 552 kts 112°
2026-04-23 10:28 26.55907 51.76622 38904 ft 552 kts 112°
2026-04-23 10:29 26.53299 51.84676 38898 ft 551 kts 112°
2026-04-23 10:29 26.50669 51.92714 38884 ft 551 kts 113°
2026-04-23 10:30 26.47996 52.00720 38877 ft 551 kts 113°
2026-04-23 10:30 26.45315 52.08748 38872 ft 551 kts 113°
2026-04-23 10:31 26.42637 52.16767 38861 ft 552 kts 113°
2026-04-23 10:31 26.39953 52.24784 38856 ft 552 kts 113°
2026-04-23 10:32 26.37263 52.32801 38851 ft 553 kts 113°
2026-04-23 10:32 26.34536 52.40842 38850 ft 554 kts 115°
2026-04-23 10:33 26.31488 52.48734 38851 ft 555 kts 116°
2026-04-23 10:33 26.28401 52.56620 38857 ft 556 kts 116°
2026-04-23 10:34 26.25340 52.64545 38856 ft 558 kts 115°
2026-04-23 10:34 26.22280 52.72508 38865 ft 559 kts 115°
2026-04-23 10:35 26.19230 52.80488 38863 ft 560 kts 115°
2026-04-23 10:35 26.16193 52.88409 38861 ft 561 kts 115°
2026-04-23 10:36 26.13126 52.96390 38853 ft 561 kts 115°
2026-04-23 10:36 26.10050 53.04376 38850 ft 561 kts 115°
2026-04-23 10:37 26.07033 53.12528 38845 ft 562 kts 114°
2026-04-23 10:37 26.04142 53.20463 38836 ft 562 kts 114°
2026-04-23 10:38 26.01178 53.28524 38844 ft 563 kts 114°
2026-04-23 10:38 25.98207 53.36568 38842 ft 563 kts 114°
2026-04-23 10:39 25.95225 53.44622 38846 ft 563 kts 114°
2026-04-23 10:39 25.92261 53.52678 38844 ft 564 kts 113°
2026-04-23 10:40 25.89482 53.60811 38849 ft 564 kts 112°
2026-04-23 10:40 25.86701 53.68962 38851 ft 564 kts 112°
2026-04-23 10:41 25.83895 53.77088 38858 ft 565 kts 113°
2026-04-23 10:41 25.81068 53.85222 38848 ft 565 kts 113°
2026-04-23 10:42 25.78247 53.93323 38303 ft 561 kts 113°
2026-04-23 10:42 25.76836 53.97371 37171 ft 562 kts 113°
2026-04-23 10:42 25.75427 54.01407 36143 ft 559 kts 112°
2026-04-23 10:43 25.74101 54.05450 35054 ft 557 kts 110°
2026-04-23 10:43 25.72877 54.09509 34057 ft 552 kts 109°
2026-04-23 10:43 25.71678 54.13540 32837 ft 550 kts 110°
2026-04-23 10:43 25.70473 54.17547 31750 ft 544 kts 110°
2026-04-23 10:44 25.69270 54.21499 30813 ft 537 kts 110°
2026-04-23 10:44 25.68075 54.25395 29901 ft 530 kts 111°
2026-04-23 10:44 25.66894 54.29227 28945 ft 522 kts 111°
2026-04-23 10:44 25.65728 54.33000 28068 ft 513 kts 111°
2026-04-23 10:45 25.64581 54.36706 27192 ft 504 kts 111°
2026-04-23 10:45 25.63453 54.40344 26327 ft 496 kts 111°
2026-04-23 10:45 25.62337 54.43937 25474 ft 488 kts 111°
2026-04-23 10:45 25.61239 54.47468 24642 ft 481 kts 111°
2026-04-23 10:46 25.60159 54.50939 23837 ft 474 kts 111°
2026-04-23 10:46 25.59095 54.54365 22921 ft 467 kts 110°
2026-04-23 10:46 25.58335 54.57860 21716 ft 469 kts 99°
2026-04-23 10:46 25.58160 54.61463 20466 ft 470 kts 88°
2026-04-23 10:47 25.58529 54.65070 19153 ft 471 kts 82°
2026-04-23 10:47 25.59007 54.68614 17884 ft 472 kts 82°
2026-04-23 10:47 25.59466 54.72179 16739 ft 465 kts 82°
2026-04-23 10:47 25.59909 54.75689 15739 ft 454 kts 83°
2026-04-23 10:48 25.60339 54.79115 14789 ft 444 kts 83°
2026-04-23 10:48 25.60752 54.82462 13861 ft 433 kts 85°
2026-04-23 10:48 25.60783 54.85779 12861 ft 422 kts 98°
2026-04-23 10:48 25.60214 54.88895 11793 ft 412 kts 110°
2026-04-23 10:49 25.59141 54.91793 10910 ft 400 kts 117°
2026-04-23 10:49 25.58044 54.94548 10430 ft 381 kts 116°
2026-04-23 10:49 25.57026 54.97174 10172 ft 361 kts 116°
2026-04-23 10:49 25.56064 54.99668 9770 ft 346 kts 116°
2026-04-23 10:50 25.55123 55.02094 9031 ft 342 kts 116°
2026-04-23 10:50 25.54089 55.04449 8395 ft 332 kts 123°
2026-04-23 10:50 25.52950 55.06596 8126 ft 314 kts 123°
2026-04-23 10:50 25.51892 55.08635 8029 ft 298 kts 123°
2026-04-23 10:51 25.50880 55.10594 8014 ft 292 kts 123°
2026-04-23 10:51 25.49867 55.12547 8017 ft 294 kts 123°
2026-04-23 10:51 25.48862 55.14482 8024 ft 297 kts 123°
2026-04-23 10:51 25.47836 55.16457 8013 ft 295 kts 123°
2026-04-23 10:52 25.46815 55.18421 8012 ft 294 kts 123°
2026-04-23 10:52 25.45711 55.20306 8014 ft 290 kts 132°
2026-04-23 10:52 25.44369 55.21968 8012 ft 290 kts 136°
2026-04-23 10:52 25.43011 55.23611 8011 ft 289 kts 136°
2026-04-23 10:53 25.41662 55.25265 8014 ft 290 kts 135°
2026-04-23 10:53 25.40332 55.26901 8010 ft 290 kts 135°
2026-04-23 10:53 25.38975 55.28571 8013 ft 289 kts 135°
2026-04-23 10:53 25.37619 55.30238 8007 ft 291 kts 135°
2026-04-23 10:54 25.36252 55.31861 8000 ft 289 kts 140°
2026-04-23 10:54 25.34678 55.33227 7838 ft 285 kts 150°
2026-04-23 10:54 25.32939 55.34271 7591 ft 281 kts 156°
2026-04-23 10:54 25.31239 55.35238 7481 ft 269 kts 155°
2026-04-23 10:55 25.29624 55.36184 7390 ft 258 kts 155°
2026-04-23 10:55 25.28069 55.37103 7306 ft 248 kts 155°
2026-04-23 10:55 25.26564 55.37985 7133 ft 243 kts 155°
2026-04-23 10:55 25.25070 55.38855 6891 ft 243 kts 155°
2026-04-23 10:56 25.23586 55.39724 6789 ft 241 kts 155°
2026-04-23 10:56 25.22600 55.40301 6717 ft 242 kts 155°
2026-04-23 10:56 25.21121 55.41164 6688 ft 237 kts 155°
2026-04-23 10:56 25.19252 55.42259 6471 ft 226 kts 155°
2026-04-23 10:57 25.17835 55.43087 6124 ft 231 kts 155°
2026-04-23 10:57 25.16422 55.43913 6038 ft 229 kts 155°
2026-04-23 10:57 25.15479 55.44465 5995 ft 226 kts 155°
2026-04-23 10:57 25.13636 55.45546 5896 ft 228 kts 155°
2026-04-23 10:58 25.12221 55.46373 5612 ft 233 kts 153°
2026-04-23 10:58 25.10933 55.47487 5210 ft 242 kts 135°
2026-04-23 10:58 25.09972 55.49065 4750 ft 253 kts 123°
2026-04-23 10:58 25.09068 55.50757 4275 ft 259 kts 124°
2026-04-23 10:59 25.08120 55.52478 3773 ft 264 kts 124°
2026-04-23 10:59 25.07153 55.54210 3293 ft 263 kts 123°
2026-04-23 10:59 25.06217 55.55890 3061 ft 250 kts 123°
2026-04-23 10:59 25.05614 55.56969 3013 ft 240 kts 123°
2026-04-23 11:00 25.04483 55.58985 2997 ft 227 kts 123°
2026-04-23 11:00 25.03671 55.60451 3003 ft 221 kts 122°
2026-04-23 11:00 25.03296 55.61477 3004 ft 218 kts 102°
2026-04-23 11:00 25.03285 55.62589 3000 ft 217 kts 78°
2026-04-23 11:01 25.04349 55.64381 3014 ft 208 kts 35°
2026-04-23 11:01 25.05555 55.65248 2978 ft 204 kts 32°
2026-04-23 11:01 25.07199 55.66118 2999 ft 199 kts
2026-04-23 11:01 25.08490 55.65726 3002 ft 194 kts 324°
2026-04-23 11:02 25.09177 55.65095 3013 ft 195 kts 312°
2026-04-23 11:02 25.10269 55.63517 3005 ft 193 kts 301°
2026-04-23 11:02 25.10743 55.62691 2989 ft 192 kts 300°
2026-04-23 11:02 25.11679 55.61002 2995 ft 194 kts 298°
2026-04-23 11:03 25.12379 55.59727 2997 ft 195 kts 298°
2026-04-23 11:03 25.13078 55.58450 2997 ft 194 kts 299°
2026-04-23 11:03 25.13800 55.57130 2998 ft 207 kts 299°
2026-04-23 11:03 25.14521 55.55810 2993 ft 194 kts 299°
2026-04-23 11:04 25.14970 55.55002 2988 ft 180 kts 299°
2026-04-23 11:04 25.15782 55.53547 2998 ft 160 kts 298°
2026-04-23 11:04 25.16365 55.52501 3011 ft 160 kts 298°
2026-04-23 11:04 25.16932 55.51484 2996 ft 154 kts 298°
2026-04-23 11:05 25.17503 55.50448 3003 ft 163 kts 298°
2026-04-23 11:05 25.18099 55.49374 3011 ft 166 kts 298°
2026-04-23 11:05 25.18688 55.48328 3003 ft 158 kts 298°
2026-04-23 11:05 25.19263 55.47288 2449 ft 165 kts 302°
2026-04-23 11:06 25.20194 55.45456 1448 ft 157 kts 305°
2026-04-23 11:06 25.20852 55.44135 1091 ft 136 kts 307°
2026-04-23 11:06 25.21408 55.43313 838 ft 133 kts 310°
2026-04-23 11:07 25.21920 55.42509 663 ft 124 kts 304°
2026-04-23 11:07 25.22361 55.41688 526 ft 126 kts 307°
2026-04-23 11:07 25.22833 55.40852 359 ft 135 kts 307°
2026-04-23 11:07 25.23333 55.39931 158 ft 142 kts 307°
2026-04-23 11:08 25.23846 55.39023 38 ft 135 kts 304°
2026-04-23 11:08 25.24276 55.38284 37 ft 92 kts 302°
2026-04-23 11:08 25.24540 55.37774 33 ft 64 kts 302°
2026-04-23 11:08 25.24746 55.37419 33 ft 48 kts 301°
2026-04-23 11:09 25.24903 55.37134 35 ft 40 kts 301°
2026-04-23 11:09 25.25004 55.36905 35 ft 31 kts 287°
2026-04-23 11:09 25.25025 55.36692 30 ft 26 kts 272°
2026-04-23 11:09 25.25031 55.36522 28 ft 19 kts 273°
2026-04-23 11:10 25.25038 55.36461 28 ft 0 kts 284°
2026-04-23 11:11 25.25038 55.36460 28 ft 1 kts 284°
2026-04-23 11:12 25.25046 55.36426 28 ft 7 kts 284°
2026-04-23 11:12 25.25057 55.36386 28 ft 9 kts 292°
2026-04-23 11:12 25.25059 55.36380 28 ft 0 kts 295°
2026-04-23 11:12 25.25074 55.36345 27 ft 5 kts 295°
2026-04-23 11:13 25.25079 55.36322 27 ft 4 kts 249°
2026-04-23 11:13 25.25046 55.36301 27 ft 11 kts 207°
2026-04-23 11:13 25.24988 55.36263 27 ft 9 kts 212°
2026-04-23 11:13 25.24980 55.36257 27 ft 3 kts 214°
2026-04-23 11:14 25.24951 55.36235 26 ft 3 kts 212°
2026-04-23 11:14 25.24944 55.36230 26 ft 1 kts 211°
2026-04-23 11:14 25.24929 55.36220 26 ft 0 kts 211°